Regional Weather Roundup
Issued by NWS Columbia, SC

Home | Current Version | Previous Version | Text Only | Print | Product List | Glossary On
Versions: 1 2 3 4 5 6 7 8 9 10 11 12 13 14 15 16 17 18 19 20 21 22 23 24 25 26 27 28 29 30 31 32 33 34 35 36 37 38 39 40 41 42 43 44 45 46 47 48 49 50
000
ASUS42 KCAE 210110
RWRCAE
REGIONAL WEATHER ROUNDUP
NATIONAL WEATHER SERVICE COLUMBIA SC
800 PM EST SAT DEC 20 2014

NOTE: "FAIR" INDICATES FEW OR NO CLOUDS BELOW 12,000 FEET WITH NO
SIGNIFICANT WEATHER AND/OR OBSTRUCTIONS TO VISIBILITY.

NOT ALL STATIONS ARE QUALITY CONTROLLED BY THE NATIONAL
WEATHER SERVICE. USE DATA WITH CAUTION...ESPECIALLY
DEWPOINT OBSERVATIONS.

SCZ001>056-GAZ040-063>065-077-210200-
...UPSTATE SOUTH CAROLINA...

CITY           SKY/WX    TMP DP  RH WIND       PRES   REMARKS
ANDERSON       CLOUDY    45  40  82 NE6       30.22S
LIBERTY        CLOUDY    42  40  91 MISG      30.21S
SPARTANBURG    FAIR      45  45 100 CALM      30.23R
CLEMSON        CLOUDY    45  40  82 CALM      30.23R
GREENVILLE     CLOUDY    43  39  86 NE6       30.23R
GREENWOOD      CLOUDY    45  42  89 E3        30.24R
GREER          CLOUDY    43  41  93 NE3       30.21R
ROCK HILL      CLOUDY    43  36  76 CALM      30.24R
CHESTER        CLOUDY    45  37  76 CALM      30.24S
LAURENS        CLOUDY    43  43 100 NE3       30.23R


...CENTRAL SOUTH CAROLINA...

CITY           SKY/WX    TMP DP  RH WIND       PRES   REMARKS
COLUMBIA APT   CLOUDY    48  40  73 E6        30.23S
COLUMBIA OWENS CLOUDY    47  40  76 E3        30.25R
DARLINGTON     CLOUDY    45  36  70 NE6       30.27R
FLORENCE       CLOUDY    43  39  86 NE8       30.25S
MCENTIRE ANGB  CLOUDY    45  40  82 NE7       30.24S
ORANGEBURG     CLOUDY    46  43  89 NE6       30.23R
NEWBERRY       CLOUDY    43 N/A N/A NE3       30.26R
AIKEN          CLOUDY    46  46 100 NE7       30.25R FOG
BARNWELL       CLOUDY    48  48 100 E7        30.22S
CAMDEN         CLOUDY    45  37  76 NE6       30.26S
LANCASTER      MOCLDY    43  41  93 NE5       30.25R
WINNSBORO      CLOUDY    43  41  93 E6        30.23S


...EASTERN AND COASTAL SOUTH CAROLINA...

CITY           SKY/WX    TMP DP  RH WIND       PRES   REMARKS
N MYRTLE BCH   CLOUDY    44  41  89 NE9       30.24S
CONWAY         CLOUDY    43  43 100 NE7       30.25S
MARION         CLOUDY    43  39  87 CALM      30.26F
HARTSVILLE     CLOUDY    45  37  76 NE5       30.26S
FLORENCE       CLOUDY    43  39  86 NE8       30.25S
DARLINGTON     CLOUDY    45  36  70 NE6       30.27R
CHARLESTON APT CLOUDY    49  47  93 NE7       30.22S
MOUNT PLEASANT CLOUDY    48  48 100 NE7       30.22S
WALTERBORO     CLOUDY    50 N/A N/A NE6       30.22S
BEAUFORT       CLOUDY    53  51  93 NE10      30.20S FOG


...EASTERN GEORGIA...

CITY           SKY/WX    TMP DP  RH WIND       PRES   REMARKS
AUGUSTA BUSH F CLOUDY    49  46  90 NE7       30.22R
AUGUSTA DANIEL CLOUDY    50  48  93 NE8       30.22R
THOMSON        CLOUDY    50  50 100 NE3       30.25R
WASHINGTON     CLOUDY    48 N/A N/A NE3       30.21R HAZE
CLAXTON        CLOUDY    54  52  94 NE5       30.19S
SYLVANIA       CLOUDY    52  52 100 NE5       30.21R
STATESBORO     CLOUDY    52  52 100 NE5       30.19S
SAVANNAH       CLOUDY    54  50  86 NE7       30.19S


...SOUTHERN NORTH CAROLINA...

CITY           SKY/WX    TMP DP  RH WIND       PRES   REMARKS
CHARLOTTE      CLOUDY    44  33  65 SE8       30.24R
MONROE         CLOUDY    42  35  76 VRB3      30.24R
WADESBORO      CLOUDY    41  37  84 NE3       30.26S
ROCKINGHAM     CLOUDY    40  37  86 NE3       30.26S FOG
RUTHERFORDTON  CLOUDY    42  38  86 CALM      30.24R
ASHEVILLE      CLOUDY    40  37  89 S9        30.19R WCI  34

$$



USA.gov is the U.S. government's official web portal to all federal, state and local government web resources and services.